{"data":{"norad_id":51652,"intl_designator":"2022-012AG","name":"ONEWEB-0468","alt_names":[],"object_type":"PAYLOAD","status":"ACTIVE","operator":null,"country":"UK","launch_date":"2022-02-10","launch_site_code":"FRGUI","launch_vehicle":null,"mission":null,"orbit_class":"UNKNOWN","rcs_meters":null,"size_class":null,"mass_kg":null,"dimensions":null,"purposes":["comms"],"wikipedia_slug":null,"has_3d_model":false,"image_url":null,"decayed_at":null,"tle_current":{"epoch":"2026-09-20T02:29:33.935136Z","epoch_age_seconds":60262,"freshness":"FRESH","line1":"1 51652U 22012AG  26263.10386499  .00000182  00000+0  48646-3 0  9996","line2":"2 51652  87.8895  17.3760 0001860  92.6920 267.4420 13.10373430221738","mean_motion":13.1037343,"eccentricity":0.000186,"inclination_deg":87.8895,"raan_deg":17.376,"arg_perigee_deg":92.692,"mean_anomaly_deg":267.442,"bstar":0.00048646,"rev_number":22173,"period_min":109.8923380948,"perigee_km":1220.3012081766,"apogee_km":1223.128353039,"semimajor_km":7599.8517806078,"source":"CELESTRAK","updated_at":"2026-09-20T09:00:44.713866Z"}}}